[[{"header":{"parameterUnit":"m.s-1","parameterCategory":1,"la1":30.2991,"la2":30.254,"lo1":-89.0895,"lo2":-89.0444,"dy":0.0017,"dx":0.0017,"nx":28,"ny":28,"refTime":"2025-11-05T09:00:00:Z","depth":0,"parameterNumber":2,"parameterNumberName":"U-component_of_WINDS"},"data":[0,0,0,0,0,0,0,0,0,0,0,0,0,0,0,0,0,0,0,0,0,0,0,0,0,0,0,0,0,0,0,0,0,0,0,0,0,0,0,0,0,0,0,0,0,0,0,0,0,0,0,0,0,0,0,0,0,0,-0.4929,-0.4929,0,-0.4919,-0.4919,-0.4918,-0.4837,-0.4835,-0.4833,-0.4831,-0.4825,-0.4827,-0.4829,0,0,0,0,0,0,0,0,0,0,0,0,0,-0.4881,-0.4883,-0.4929,-0.4929,-0.4929,-0.4919,-0.4919,-0.4918,-0.4837,-0.4835,-0.4832,-0.483,-0.4825,-0.4827,-0.4829,0,0,0,0,0,0,0,0,0,0,0,0,0,-0.489,-0.4883,-0.4929,-0.4887,-0.4883,-0.4919,-0.4919,-0.4918,-0.4838,-0.4835,-0.4831,-0.4829,-0.4824,-0.4826,-0.4829,-0.4906,0,0,-0.4837,-0.4838,0,0,0,0,0,0,0,0,-0.489,-0.4892,-0.4893,-0.489,-0.4885,-0.4876,-0.49,-0.4915,-0.4838,-0.4855,-0.4831,-0.4827,-0.4845,-0.4846,-0.485,-0.4906,-0.4906,-0.4837,-0.4839,-0.484,-0.4841,0,0,0,0,0,0,0,-0.4889,-0.4892,-0.4925,-0.4893,-0.4889,-0.4869,-0.4867,-0.4902,-0.4867,-0.4853,-0.4847,-0.4847,-0.4842,-0.4848,-0.485,-0.4906,-0.4837,-0.484,-0.4841,-0.4842,-0.5024,-0.5027,0,0,0,0,0,0,-0.4894,-0.4892,-0.4925,-0.4925,-0.488,-0.4873,-0.487,-0.4882,-0.4867,-0.4861,-0.485,-0.4843,-0.4845,-0.4847,-0.4849,-0.4939,-0.484,-0.4842,-0.4844,-0.502,-0.5024,-0.5028,0,0,0,0,0,0,-0.4893,-0.4898,-0.4926,-0.4907,-0.4909,-0.4877,-0.4891,-0.4883,-0.4889,-0.4864,-0.4857,-0.4862,-0.4843,-0.4846,-0.4892,-0.4937,-0.4844,-0.4846,-0.5017,-0.5022,-0.5026,-0.5118,0,0,0,0,0,0,-0.4892,-0.4898,-0.4926,-0.4908,-0.491,-0.4968,-0.4893,-0.4885,-0.4893,-0.4885,-0.4874,-0.4869,-0.4841,-0.4889,-0.4895,-0.4939,-0.4848,-0.5013,-0.5019,-0.5025,-0.5111,-0.5126,-0.5138,0,0,0,0,0,-0.4891,-0.4954,-0.4928,-0.4932,-0.4944,-0.4971,-0.4972,-0.4937,-0.4897,-0.4926,-0.4909,-0.4869,-0.4931,-0.4894,-0.49,-0.4946,-0.501,-0.5017,-0.5024,-0.5105,-0.5123,-0.5138,0,0,0,0,0,0,-0.498,-0.4951,-0.4922,-0.498,-0.4979,-0.4957,-0.4992,-0.4957,-0.4968,-0.496,-0.4917,-0.4915,-0.4969,-0.4962,-0.4921,-0.502,-0.4963,-0.4972,-0.5023,-0.5039,-0.5053,-0.5054,-0.485,0,0,0,0,0,-0.5006,-0.5029,-0.5002,-0.5057,-0.5057,-0.5025,-0.5035,-0.5008,-0.5005,-0.5004,-0.4991,-0.4991,-0.501,-0.5024,-0.5041,-0.5109,-0.5106,-0.5144,-0.5157,-0.5168,-0.5177,-0.5213,-0.523,-0.5052,-0.5052,-0.5052,0,0,-0.5062,-0.5048,-0.5065,-0.5074,-0.507,-0.5095,-0.5025,-0.5055,-0.5074,-0.5009,-0.5052,-0.5043,-0.504,-0.5098,-0.5123,-0.5094,-0.5225,-0.5178,-0.5187,-0.519,-0.5222,-0.5239,-0.5254,-0.5057,-0.5056,-0.5055,0,0,-0.5175,-0.5167,-0.5211,-0.5207,-0.52,-0.5178,-0.5189,-0.5173,-0.5163,-0.5205,-0.5157,-0.5179,-0.5213,-0.5213,-0.5218,-0.5329,-0.5293,-0.5336,-0.5408,-0.5443,-0.5457,-0.5469,-0.551,-0.5525,-0.5344,-0.5345,-0.5345,0,-0.5246,-0.5281,-0.5239,-0.5272,-0.5277,-0.5218,-0.5263,-0.5262,-0.5262,-0.5267,-0.5234,-0.5275,-0.5269,-0.5326,-0.5353,-0.5358,-0.537,-0.5338,-0.5458,-0.547,-0.5481,-0.5519,-0.5535,-0.535,-0.5349,-0.5349,-0.5348,0,-0.5367,-0.5393,-0.5429,-0.5428,-0.5438,-0.5477,-0.5442,-0.5457,-0.5429,-0.541,-0.5454,-0.5444,-0.5457,-0.5468,-0.5442,-0.5522,-0.5504,-0.5465,-0.5408,-0.5504,-0.5539,-0.5554,-0.5358,-0.5356,-0.5354,-0.5353,0,0,-0.5539,-0.5513,-0.5528,-0.5526,-0.5513,-0.5533,-0.5569,-0.558,-0.5594,-0.5595,-0.5626,-0.5655,-0.5618,-0.5624,-0.5596,-0.5627,-0.5717,-0.5584,-0.5583,-0.561,-0.5806,-0.5836,-0.5854,-0.5692,-0.5694,-0.5697,-0.5806,0,-0.5649,-0.5709,-0.5671,-0.5737,-0.576,-0.5703,-0.5735,-0.5731,-0.5715,-0.5733,-0.5715,-0.5737,-0.5686,-0.5689,-0.5717,-0.57,-0.5756,-0.5692,-0.5721,-0.5723,-0.5725,-0.5872,-0.5904,-0.6008,-0.582,-0.5822,-0.5824,0,-0.5786,-0.5791,-0.5859,-0.5841,-0.5849,-0.5878,-0.5885,-0.5902,-0.5897,-0.5883,-0.5888,-0.5852,-0.5888,-0.5829,-0.5878,-0.5835,-0.5845,-0.5838,-0.5841,-0.5844,-0.578,-0.588,-0.604,-0.6057,-0.5845,-0.5843,-0.5842,0,-0.5906,-0.593,-0.5973,-0.5974,-0.5954,-0.5975,-0.5968,-0.596,-0.5968,-0.5975,-0.598,-0.5991,-0.5998,-0.6007,-0.5976,-0.5936,-0.6029,-0.5968,-0.602,-0.6021,-0.6044,-0.6043,-0.6209,-0.6048,-0.6047,-0.6047,-0.6047,0,-0.6033,-0.6077,-0.6027,-0.6054,-0.6101,-0.6058,-0.6107,-0.6094,-0.6086,-0.611,-0.6062,-0.6086,-0.6042,-0.6062,-0.6038,-0.6082,-0.6085,-0.6076,-0.6069,-0.6081,-0.6083,-0.6088,-0.6081,-0.6051,-0.605,-0.605,-0.6049,0,-0.6176,-0.6144,-0.6187,-0.6164,-0.6159,-0.6195,-0.6176,-0.62,-0.6179,-0.6211,-0.6216,-0.6184,-0.6205,-0.6174,-0.6192,-0.6175,-0.6237,-0.6218,-0.6239,-0.6234,-0.6287,-0.6283,-0.6464,-0.6486,-0.631,-0.6311,-0.6313,0,-0.626,-0.6292,-0.6272,-0.6283,-0.6279,-0.6299,-0.6306,-0.6265,-0.6276,-0.6271,-0.6297,-0.6313,-0.6324,-0.636,-0.634,-0.6353,-0.6336,-0.6398,-0.6337,-0.6348,-0.6338,-0.6337,-0.634,-0.6411,-0.6413,-0.6415,-0.6416,0,-0.6414,-0.6395,-0.6408,-0.6415,-0.6426,-0.643,-0.6431,-0.6444,-0.64,-0.6415,-0.6434,-0.6443,-0.646,-0.6477,-0.6485,-0.6478,-0.6441,-0.6435,-0.6448,-0.6461,-0.6472,-0.6468,-0.6274,-0.6432,-0.643,-0.6429,-0.6428,-0.6428,-0.653,-0.6556,-0.6545,-0.6561,-0.6556,-0.6558,-0.658,-0.6561,-0.6576,-0.6586,-0.656,-0.6586,-0.658,-0.6586,-0.6584,-0.6604,-0.6577,-0.6595,-0.66,-0.6606,-0.6615,-0.6467,-0.6605,-0.6605,-0.6604,-0.6604,-0.6604,0,-0.6682,-0.6671,-0.6686,-0.6688,-0.67,-0.6661,-0.6659,-0.6673,-0.6696,-0.6692,-0.6703,-0.6726,-0.6742,-0.6722,-0.6735,-0.6755,-0.6738,-0.676,-0.6759,-0.6758,-0.6638,-0.6626,-0.6773,-0.6773,-0.6773,-0.6773,-0.6773,-0.6773,-0.6762,-0.6804,-0.6784,-0.6823,-0.6813,-0.6836,-0.6839,-0.684,-0.6837,-0.6864,-0.6876,-0.6862,-0.6852,-0.6864,-0.6877,-0.687,-0.6878,-0.6906,-0.6895,-0.6783,-0.6766,-0.6751,-0.6739,-0.6908,-0.6908,-0.7013,-0.7014,-0.7015]},{"header":{"parameterUnit":"m.s-1","parameterCategory":1,"la1":30.2991,"la2":30.254,"lo1":-89.0895,"lo2":-89.0444,"dy":0.0017,"dx":0.0017,"nx":28,"ny":28,"refTime":"2025-11-05T09:00:00:Z","depth":0,"parameterNumber":3,"parameterNumberName":"V-component_of_WINDS"},"data":[0,0,0,0,0,0,0,0,0,0,0,0,0,0,0,0,0,0,0,0,0,0,0,0,0,0,0,0,0,0,0,0,0,0,0,0,0,0,0,0,0,0,0,0,0,0,0,0,0,0,0,0,0,0,0,0,0,0,-0.8186,-0.8186,0,-0.8237,-0.8238,-0.8238,-0.83,-0.8301,-0.8302,-0.8303,-0.8353,-0.8353,-0.8354,0,0,0,0,0,0,0,0,0,0,0,0,0,-0.8138,-0.8138,-0.8185,-0.8186,-0.8187,-0.8237,-0.8238,-0.8238,-0.83,-0.8301,-0.8302,-0.8303,-0.8353,-0.8353,-0.8354,0,0,0,0,0,0,0,0,0,0,0,0,0,-0.8171,-0.8138,-0.8185,-0.8223,-0.8227,-0.8237,-0.8238,-0.8238,-0.8299,-0.8301,-0.8302,-0.8304,-0.8353,-0.8353,-0.8354,-0.8329,0,0,-0.8356,-0.8356,0,0,0,0,0,0,0,0,-0.8169,-0.8172,-0.8217,-0.8221,-0.8225,-0.8263,-0.8239,-0.8269,-0.8299,-0.8272,-0.8303,-0.8304,-0.8322,-0.8325,-0.8332,-0.8331,-0.8334,-0.8356,-0.8356,-0.8357,-0.8357,0,0,0,0,0,0,0,-0.8166,-0.817,-0.8206,-0.8218,-0.8223,-0.8237,-0.8243,-0.8245,-0.8288,-0.8274,-0.8279,-0.8284,-0.8324,-0.8331,-0.8333,-0.8334,-0.8356,-0.8357,-0.8357,-0.8357,-0.8314,-0.8312,0,0,0,0,0,0,-0.8159,-0.8168,-0.8204,-0.8207,-0.82,-0.8237,-0.8244,-0.825,-0.8288,-0.8296,-0.8283,-0.8287,-0.8329,-0.8332,-0.8335,-0.8306,-0.8357,-0.8357,-0.8358,-0.8315,-0.8313,-0.8312,0,0,0,0,0,0,-0.8157,-0.8161,-0.8202,-0.8189,-0.8195,-0.8236,-0.8242,-0.825,-0.8256,-0.8295,-0.8303,-0.8282,-0.833,-0.8334,-0.833,-0.8309,-0.8358,-0.8358,-0.8317,-0.8315,-0.8313,-0.8249,0,0,0,0,0,0,-0.8156,-0.816,-0.8152,-0.8188,-0.8196,-0.8196,-0.8241,-0.825,-0.8258,-0.8263,-0.8296,-0.8302,-0.8332,-0.8328,-0.833,-0.831,-0.8359,-0.8319,-0.8316,-0.8313,-0.8253,-0.8245,-0.8238,0,0,0,0,0,-0.8154,-0.8132,-0.8151,-0.8155,-0.8186,-0.8195,-0.8199,-0.8234,-0.8256,-0.8247,-0.8271,-0.8301,-0.8312,-0.8327,-0.833,-0.831,-0.8321,-0.8317,-0.8314,-0.8256,-0.8246,-0.8238,0,0,0,0,0,0,-0.8092,-0.8138,-0.8159,-0.8149,-0.8168,-0.8205,-0.8195,-0.8222,-0.8235,-0.8239,-0.8281,-0.8288,-0.8277,-0.8294,-0.8311,-0.8287,-0.832,-0.8317,-0.8276,-0.8267,-0.8259,-0.8253,-0.8359,0,0,0,0,0,-0.8077,-0.8081,-0.8121,-0.8108,-0.8116,-0.8154,-0.8159,-0.8184,-0.8205,-0.8213,-0.8237,-0.8255,-0.8262,-0.8266,-0.8275,-0.8257,-0.8263,-0.8245,-0.8237,-0.823,-0.8226,-0.8214,-0.8205,-0.83,-0.83,-0.83,0,0,-0.8046,-0.8072,-0.8072,-0.8096,-0.8114,-0.8115,-0.816,-0.8161,-0.8162,-0.8213,-0.8209,-0.8228,-0.8251,-0.8238,-0.8234,-0.8252,-0.8202,-0.8226,-0.822,-0.8219,-0.821,-0.8201,-0.8193,-0.8298,-0.8298,-0.8299,0,0,-0.799,-0.8012,-0.8002,-0.8018,-0.8044,-0.8069,-0.8067,-0.8101,-0.8114,-0.8112,-0.8149,-0.8152,-0.8164,-0.8178,-0.8186,-0.8135,-0.8161,-0.8137,-0.8095,-0.8083,-0.8076,-0.8069,-0.8047,-0.804,-0.8133,-0.8133,-0.8133,0,-0.7948,-0.7953,-0.7993,-0.799,-0.7999,-0.8046,-0.8035,-0.8049,-0.8076,-0.808,-0.81,-0.8115,-0.8134,-0.8124,-0.8111,-0.8118,-0.8115,-0.8132,-0.8074,-0.8068,-0.8062,-0.8042,-0.8034,-0.813,-0.813,-0.813,-0.8131,0,-0.7899,-0.7902,-0.789,-0.7915,-0.7923,-0.7916,-0.7953,-0.7956,-0.7981,-0.8003,-0.7999,-0.8024,-0.8037,-0.8038,-0.8062,-0.803,-0.804,-0.8067,-0.81,-0.8049,-0.803,-0.8023,-0.8125,-0.8126,-0.8127,-0.8128,0,0,-0.7803,-0.785,-0.7845,-0.7855,-0.7887,-0.7889,-0.7885,-0.7898,-0.7898,-0.7916,-0.791,-0.792,-0.7944,-0.7954,-0.798,-0.797,-0.7924,-0.7998,-0.7999,-0.798,-0.7886,-0.7863,-0.7853,-0.7943,-0.7942,-0.7941,-0.7883,0,-0.775,-0.7744,-0.7779,-0.7763,-0.7764,-0.7809,-0.7805,-0.7823,-0.7844,-0.7848,-0.7871,-0.7875,-0.7909,-0.7915,-0.7908,-0.7931,-0.7905,-0.7936,-0.7936,-0.7935,-0.7924,-0.7844,-0.782,-0.7764,-0.7877,-0.7875,-0.7875,0,-0.7687,-0.77,-0.7684,-0.7715,-0.7717,-0.7712,-0.7726,-0.773,-0.7751,-0.7767,-0.7777,-0.7808,-0.7803,-0.7838,-0.7831,-0.7851,-0.7854,-0.7865,-0.7864,-0.7862,-0.7899,-0.7836,-0.7748,-0.7737,-0.7864,-0.7865,-0.7866,0,-0.7613,-0.7628,-0.7619,-0.7628,-0.7665,-0.7659,-0.7674,-0.7697,-0.7703,-0.7715,-0.7718,-0.773,-0.7736,-0.7744,-0.7776,-0.7799,-0.7763,-0.7802,-0.7774,-0.7773,-0.7761,-0.7761,-0.7667,-0.777,-0.777,-0.777,-0.777,0,-0.7548,-0.7535,-0.7586,-0.7581,-0.7567,-0.7608,-0.7593,-0.7613,-0.7633,-0.763,-0.7671,-0.7668,-0.7713,-0.7714,-0.774,-0.7727,-0.7731,-0.7742,-0.7748,-0.7735,-0.7733,-0.7734,-0.7737,-0.7768,-0.7768,-0.7769,-0.7769,0,-0.7462,-0.7497,-0.7489,-0.7525,-0.7534,-0.7522,-0.7552,-0.7547,-0.7571,-0.7568,-0.7569,-0.7607,-0.761,-0.7644,-0.7655,-0.7672,-0.7649,-0.7665,-0.7641,-0.7644,-0.7613,-0.7613,-0.7513,-0.7501,-0.7615,-0.7614,-0.7613,0,-0.7416,-0.7407,-0.7442,-0.7443,-0.7456,-0.7459,-0.7464,-0.7504,-0.7508,-0.753,-0.7522,-0.7529,-0.7536,-0.7539,-0.7567,-0.7575,-0.7588,-0.7553,-0.759,-0.7577,-0.7583,-0.7581,-0.7578,-0.7543,-0.7542,-0.7541,-0.754,0,-0.7329,-0.7346,-0.7353,-0.7364,-0.737,-0.7381,-0.7395,-0.7393,-0.7437,-0.7439,-0.7443,-0.7449,-0.746,-0.7465,-0.7478,-0.7492,-0.7521,-0.7529,-0.7522,-0.7507,-0.7492,-0.7495,-0.7615,-0.753,-0.7531,-0.7532,-0.7532,-0.7533,-0.7259,-0.7252,-0.7274,-0.7279,-0.7294,-0.7306,-0.7302,-0.7326,-0.733,-0.7342,-0.7366,-0.7365,-0.7386,-0.7406,-0.7418,-0.7417,-0.7435,-0.7426,-0.7423,-0.7419,-0.7411,-0.7496,-0.742,-0.7421,-0.7421,-0.7421,-0.7422,0,-0.717,-0.7187,-0.7192,-0.7209,-0.7212,-0.7243,-0.7259,-0.7259,-0.7258,-0.7275,-0.7281,-0.7285,-0.729,-0.7318,-0.7326,-0.7319,-0.7333,-0.7319,-0.7318,-0.732,-0.7397,-0.74,-0.7308,-0.7308,-0.7308,-0.7308,-0.7308,-0.7308,-0.7124,-0.7113,-0.7132,-0.7128,-0.7145,-0.7145,-0.7151,-0.7161,-0.7174,-0.7176,-0.718,-0.7199,-0.722,-0.7229,-0.7234,-0.7243,-0.7241,-0.7222,-0.7234,-0.7304,-0.7315,-0.7325,-0.7328,-0.7223,-0.7223,-0.7157,-0.7156,-0.7156]}]]